O3B MPOWER F4

Last updated on Wed Dec 27 2023 00:03:03 GMT+0000 (Coordinated Universal Time)

1 56367U 23059A 23360.27009055 -.00000022 00000+0 00000+0 0 9991 2 56367 0.0395 16.3499 0007340 266.4090 77.1578 5.00114798 13384
UTC large
Height (km)
Speed (km/s)
/
Latitude / Longitude
Inclination (degrees)
Orbital Period (minutes)
Azimuth
Elevation
Range (km)
Doppler Factor

Next 0 passes for location: London (51.5072 / 0.1276)

Sorry there are no passes over London.
O3B MPOWER F4